QPF
0.01 0.06 0.39 0.44 0.16 0.03 0.03 0.02 0.03 0.03 0.04 0.09 0.10 0.11 0.12 0.15 0.12 0.05 0.11 0.14 0.14 0.22 0.32 0.22 0.12 0.10 0.11 0.07 0.06 0.07 0.04 0.03 0.02 0.00 0.00 0.00 0.00 0.00 0.00 0.00 0.00 0.00 0.00 0.00 0.01 0.02 0.01 0.00 0.00 0.00 0.00 0.00 0.00 0.01
0.11 0.20 0.54 0.59 0.34 0.11 0.14 0.12 0.13 0.11 0.11 0.14 0.15 0.16 0.16 0.15 0.12 0.10 0.17 0.20 0.14 0.15 0.21 0.15 0.11 0.08 0.05 0.03 0.01 0.01 0.00 0.00 0.00 0.00 0.00 0.00 0.00 0.00 0.00 0.00 0.00 0.00 0.00 0.00 0.01 0.00 0.00 0.00 0.00 0.00 0.00 0.00 0.00 0.01
0.30 0.45 0.70 0.60 0.28 0.26 0.28 0.22 0.26 0.23 0.22 0.22 0.21 0.17 0.15 0.18 0.14 0.12 0.16 0.13 0.08 0.09 0.12 0.09 0.05 0.02 0.00 0.00 0.00 0.00 0.00 0.00 0.00 0.00 0.00 0.00 0.00 0.00 0.00 0.00 0.00 0.00 0.00 0.01 0.00 0.00 0.00 0.00 0.00 0.00 0.00 0.00 0.00 0.00
0.39 0.57 0.48 0.40 0.28 0.35 0.37 0.36 0.39 0.33 0.32 0.29 0.25 0.22 0.18 0.15 0.13 0.08 0.06 0.04 0.03 0.03 0.04 0.04 0.01 0.00 0.00 0.00 0.00 0.00 0.00 0.00 0.00 0.00 0.00 0.00 0.00 0.00 0.00 0.00 0.00 0.00 0.00 0.00 0.00 0.00 0.00 0.00 0.00 0.00 0.00 0.00 0.00 0.00
0.44 0.39 0.37 0.35 0.31 0.35 0.38 0.38 0.35 0.31 0.26 0.23 0.21 0.14 0.11 0.06 0.04 0.02 0.01 0.01 0.00 0.01 0.02 0.01 0.00 0.00 0.00 0.00 0.00 0.00 0.00 0.00 0.00 0.00 0.00 0.00 0.00 0.00 0.00 0.00 0.00 0.00 0.00 0.00 0.00 0.00 0.00 0.00 0.00 0.00 0.00 0.00 0.00 0.00
0.28 0.25 0.22 0.21 0.19 0.19 0.21 0.22 0.20 0.19 0.15 0.12 0.09 0.06 0.04 0.02 0.01 0.00 0.00 0.00 0.00 0.00 0.00 0.00 0.00 0.00 0.00 0.00 0.00 0.00 0.00 0.00 0.00 0.00 0.00 0.00 0.00 0.00 0.00 0.00 0.00 0.00 0.00 0.00 0.00 0.00 0.00 0.00 0.00 0.00 0.00 0.00 0.00 0.00
0.14 0.12 0.08 0.06 0.05 0.05 0.04 0.03 0.03 0.02 0.02 0.02 0.01 0.00 0.00 0.00 0.00 0.00 0.00 0.00 0.00 0.00 0.00 0.00 0.00 0.00 0.00 0.00 0.00 0.00 0.00 0.00 0.00 0.00 0.00 0.00 0.00 0.00 0.00 0.00 0.00 0.00 0.00 0.00 0.00 0.00 0.00 0.00 0.00 0.00 0.00 0.00 0.00 0.00
0.03 0.01 0.01 0.01 0.00 0.00 0.00 0.00 0.00 0.00 0.00 0.00 0.00 0.00 0.00 0.00 0.00 0.00 0.00 0.00 0.00 0.00 0.00 0.00 0.00 0.00 0.00 0.00 0.00 0.00 0.00 0.00 0.00 0.00 0.00 0.00 0.00 0.00 0.00 0.00 0.00 0.00 0.00 0.00 0.00 0.00 0.00 0.00 0.00 0.00 0.00 0.00 0.00 0.00
0.00 0.00 0.00 0.00 0.00 0.00 0.00 0.00 0.00 0.00 0.00 0.00 0.00 0.00 0.00 0.00 0.00 0.00 0.00 0.00 0.00 0.00 0.00 0.00 0.00 0.00 0.00 0.00 0.00 0.00 0.00 0.00 0.00 0.00 0.00 0.00 0.00 0.00 0.00 0.00 0.00 0.00 0.00 0.00 0.00 0.01 0.00 0.00 0.00 0.00 0.00 0.00 0.00 0.01
0.00 0.00 0.00 0.00 0.00 0.00 0.00 0.00 0.00 0.00 0.00 0.00 0.00 0.00 0.00 0.00 0.00 0.00 0.00 0.00 0.00 0.00 0.00 0.00 0.00 0.00 0.00 0.00 0.00 0.00 0.00 0.00 0.00 0.00 0.00 0.00 0.00 0.00 0.00 0.00 0.03 0.07 0.04 0.00 0.03 0.03 0.02 0.02 0.02 0.01 0.01 0.00 0.00 0.00
0.00 0.00 0.00 0.00 0.00 0.00 0.00 0.00 0.00 0.00 0.00 0.00 0.00 0.00 0.00 0.00 0.00 0.00 0.00 0.00 0.00 0.00 0.00 0.00 0.00 0.00 0.00 0.00 0.00 0.00 0.00 0.00 0.00 0.00 0.01 0.01 0.00 0.00 0.01 0.08 0.16 0.11 0.02 0.00 0.00 0.00 0.00 0.00 0.00 0.00 0.00 0.00 0.00 0.00
0.00 0.00 0.00 0.00 0.00 0.00 0.00 0.00 0.00 0.00 0.00 0.00 0.00 0.00 0.00 0.00 0.00 0.00 0.00 0.00 0.00 0.00 0.00 0.00 0.00 0.00 0.00 0.00 0.00 0.00 0.00 0.00 0.00 0.00 0.01 0.00 0.01 0.03 0.04 0.10 0.14 0.05 0.00 0.00 0.00 0.00 0.00 0.00 0.00 0.00 0.00 0.00 0.00 0.00
0.00 0.00 0.00 0.00 0.00 0.00 0.00 0.00 0.00 0.00 0.00 0.00 0.00 0.00 0.00 0.00 0.00 0.00 0.00 0.00 0.00 0.00 0.00 0.00 0.00 0.00 0.00 0.00 0.00 0.01 0.00 0.00 0.00 0.00 0.00 0.01 0.05 0.04 0.03 0.02 0.04 0.04 0.00 0.00 0.00 0.00 0.00 0.00 0.00 0.00 0.00 0.00 0.00 0.00
0.01 0.01 0.00 0.00 0.00 0.00 0.00 0.00 0.00 0.00 0.00 0.00 0.00 0.00 0.00 0.00 0.00 0.00 0.00 0.00 0.00 0.00 0.00 0.00 0.01 0.02 0.00 0.00 0.00 0.01 0.00 0.00 0.00 0.00 0.01 0.03 0.07 0.09 0.03 0.00 0.00 0.00 0.00 0.00 0.00 0.00 0.00 0.00 0.00 0.00 0.00 0.00 0.00 0.00
0.02 0.02 0.01 0.00 0.00 0.00 0.00 0.00 0.00 0.00 0.00 0.00 0.00 0.00 0.00 0.00 0.00 0.00 0.00 0.00 0.00 0.00 0.00 0.00 0.00 0.01 0.01 0.00 0.00 0.02 0.03 0.01 0.00 0.01 0.04 0.04 0.04 0.01 0.00 0.00 0.00 0.00 0.00 0.00 0.00 0.00 0.00 0.00 0.00 0.00 0.00 0.00 0.00 0.00
0.00 0.00 0.01 0.00 0.00 0.00 0.00 0.00 0.00 0.00 0.00 0.00 0.00 0.00 0.00 0.00 0.00 0.00 0.00 0.00 0.00 0.00 0.00 0.00 0.01 0.01 0.01 0.00 0.00 0.01 0.01 0.00 0.01 0.02 0.02 0.01 0.00 0.00 0.00 0.00 0.00 0.00 0.00 0.00 0.00 0.00 0.00 0.00 0.00 0.00 0.00 0.00 0.00 0.00
0.00 0.00 0.01 0.00 0.00 0.00 0.00 0.00 0.00 0.00 0.00 0.00 0.00 0.00 0.00 0.00 0.00 0.00 0.00 0.00 0.00 0.00 0.00 0.00 0.01 0.01 0.02 0.01 0.00 0.00 0.01 0.02 0.01 0.00 0.00 0.00 0.00 0.00 0.00 0.00 0.00 0.00 0.00 0.00 0.00 0.00 0.00 0.00 0.00 0.00 0.00 0.00 0.00 0.00
0.00 0.00 0.00 0.00 0.00 0.00 0.00 0.00 0.00 0.00 0.00 0.00 0.00 0.00 0.00 0.00 0.00 0.00 0.00 0.00 0.00 0.00 0.00 0.00 0.00 0.00 0.01 0.00 0.00 0.00 0.00 0.00 0.00 0.00 0.00 0.00 0.00 0.00 0.00 0.00 0.00 0.00 0.00 0.00 0.00 0.00 0.00 0.00 0.01 0.00 0.01 0.00 0.00 0.01
0.00 0.00 0.00 0.00 0.00 0.00 0.00 0.00 0.00 0.00 0.00 0.00 0.00 0.00 0.00 0.00 0.00 0.00 0.00 0.00 0.00 0.00 0.00 0.00 0.00 0.00 0.00 0.00 0.00 0.00 0.00 0.00 0.00 0.00 0.00 0.00 0.00 0.00 0.00 0.00 0.00 0.00 0.00 0.00 0.00 0.00 0.00 0.00 0.01 0.01 0.01 0.01 0.01 0.01
0.00 0.00 0.00 0.00 0.00 0.00 0.00 0.00 0.00 0.00 0.00 0.00 0.00 0.00 0.00 0.00 0.00 0.00 0.00 0.00 0.00 0.02 0.02 0.00 0.00 0.00 0.00 0.00 0.00 0.00 0.00 0.00 0.00 0.00 0.00 0.00 0.00 0.00 0.00 0.00 0.00 0.00 0.00 0.00 0.00 0.00 0.00 0.00 0.00 0.00 0.02 0.02 0.02 0.02
0.00 0.00 0.00 0.00 0.00 0.00 0.00 0.00 0.00 0.00 0.00 0.00 0.00 0.00 0.00 0.00 0.00 0.00 0.00 0.00 0.01 0.03 0.01 0.00 0.00 0.00 0.01 0.01 0.00 0.00 0.00 0.00 0.00 0.00 0.00 0.00 0.00 0.00 0.00 0.00 0.00 0.00 0.00 0.00 0.00 0.00 0.00 0.00 0.00 0.00 0.01 0.03 0.03 0.04
0.00 0.00 0.00 0.00 0.00 0.00 0.00 0.00 0.00 0.00 0.00 0.00 0.00 0.00 0.00 0.00 0.00 0.00 0.00 0.00 0.00 0.00 0.00 0.00 0.00 0.00 0.00 0.00 0.00 0.00 0.00 0.00 0.00 0.00 0.00 0.00 0.00 0.00 0.00 0.00 0.00 0.00 0.00 0.00 0.00 0.00 0.01 0.02 0.01 0.01 0.01 0.03 0.04 0.05
0.01 0.01 0.00 0.00 0.00 0.00 0.00 0.00 0.00 0.00 0.00 0.00 0.00 0.00 0.00 0.00 0.00 0.00 0.00 0.00 0.00 0.00 0.00 0.00 0.00 0.00 0.00 0.00 0.00 0.00 0.00 0.00 0.00 0.00 0.00 0.00 0.00 0.00 0.00 0.00 0.00 0.00 0.00 0.00 0.00 0.01 0.03 0.04 0.04 0.03 0.02 0.02 0.02 0.03
0.00 0.02 0.02 0.02 0.01 0.00 0.00 0.01 0.01 0.00 0.01 0.00 0.00 0.00 0.00 0.00 0.00 0.00 0.00 0.00 0.00 0.00 0.00 0.00 0.00 0.00 0.00 0.00 0.00 0.00 0.00 0.00 0.00 0.00 0.00 0.00 0.00 0.00 0.00 0.00 0.00 0.00 0.02 0.01 0.01 0.02 0.04 0.07 0.08 0.05 0.03 0.01 0.02 0.02
0.00 0.00 0.00 0.00 0.01 0.01 0.01 0.00 0.00 0.00 0.00 0.00 0.00 0.00 0.00 0.00 0.00 0.00 0.00 0.00 0.00 0.00 0.00 0.00 0.00 0.00 0.00 0.00 0.00 0.00 0.00 0.00 0.00 0.00 0.00 0.00 0.00 0.00 0.00 0.00 0.00 0.01 0.01 0.01 0.02 0.04 0.04 0.05 0.05 0.04 0.03 0.02 0.02 0.02
0.00 0.00 0.00 0.00 0.00 0.00 0.00 0.00 0.00 0.00 0.00 0.00 0.00 0.00 0.00 0.00 0.00 0.00 0.00 0.00 0.00 0.00 0.00 0.00 0.00 0.00 0.00 0.00 0.00 0.00 0.00 0.00 0.00 0.00 0.00 0.00 0.00 0.00 0.00 0.00 0.00 0.00 0.01 0.02 0.04 0.04 0.03 0.03 0.03 0.03 0.02 0.02 0.02 0.01
0.00 0.00 0.00 0.00 0.00 0.00 0.00 0.00 0.00 0.00 0.00 0.00 0.00 0.00 0.00 0.00 0.00 0.00 0.00 0.00 0.00 0.00 0.00 0.00 0.00 0.00 0.00 0.00 0.00 0.00 0.00 0.00 0.00 0.00 0.00 0.00 0.00 0.00 0.00 0.00 0.00 0.00 0.01 0.02 0.03 0.03 0.02 0.02 0.02 0.02 0.02 0.02 0.02 0.01
0.00 0.00 0.00 0.00 0.00 0.00 0.00 0.00 0.00 0.00 0.00 0.00 0.00 0.00 0.00 0.00 0.00 0.00 0.00 0.00 0.00 0.00 0.00 0.00 0.00 0.00 0.00 0.00 0.00 0.00 0.00 0.00 0.00 0.00 0.00 0.01 0.00 0.00 0.00 0.00 0.00 0.00 0.00 0.01 0.01 0.01 0.01 0.01 0.01 0.01 0.01 0.01 0.01 0.01
0.00 0.00 0.00 0.00 0.00 0.00 0.00 0.00 0.00 0.00 0.00 0.00 0.00 0.00 0.00 0.00 0.00 0.00 0.00 0.00 0.00 0.00 0.00 0.00 0.00 0.00 0.00 0.00 0.00 0.00 0.00 0.00 0.00 0.00 0.00 0.00 0.00 0.00 0.00 0.00 0.00 0.00 0.00 0.00 0.00 0.01 0.01 0.00 0.00 0.00 0.01 0.01 0.01 0.01
0.00 0.00 0.00 0.00 0.00 0.00 0.00 0.00 0.00 0.00 0.00 0.00 0.00 0.00 0.00 0.00 0.00 0.00 0.00 0.00 0.00 0.00 0.00 0.00 0.00 0.00 0.00 0.00 0.00 0.00 0.00 0.00 0.00 0.00 0.00 0.00 0.00 0.00 0.00 0.00 0.00 0.00 0.00 0.00 0.00 0.00 0.00 0.00 0.01 0.01 0.01 0.01 0.01 0.01
0.00 0.00 0.00 0.00 0.00 0.00 0.00 0.00 0.00 0.00 0.00 0.00 0.00 0.00 0.00 0.00 0.00 0.00 0.00 0.00 0.00 0.00 0.00 0.00 0.00 0.00 0.00 0.00 0.00 0.00 0.00 0.00 0.00 0.00 0.00 0.00 0.00 0.00 0.00 0.00 0.00 0.00 0.00 0.00 0.00 0.00 0.00 0.00 0.00 0.01 0.01 0.01 0.01 0.01
0.00 0.00 0.00 0.00 0.00 0.00 0.00 0.00 0.00 0.00 0.00 0.00 0.00 0.00 0.00 0.00 0.00 0.00 0.00 0.00 0.00 0.00 0.00 0.00 0.00 0.00 0.00 0.00 0.00 0.00 0.00 0.00 0.00 0.00 0.00 0.00 0.00 0.00 0.00 0.00 0.00 0.00 0.00 0.00 0.00 0.00 0.00 0.00 0.00 0.00 0.00 0.01 0.00 0.00
0.00 0.00 0.00 0.00 0.00 0.00 0.00 0.00 0.00 0.00 0.00 0.00 0.00 0.00 0.00 0.00 0.00 0.00 0.00 0.00 0.00 0.00 0.00 0.00 0.00 0.00 0.00 0.00 0.00 0.00 0.00 0.00 0.00 0.00 0.00 0.00 0.00 0.00 0.00 0.00 0.00 0.00 0.01 0.00 0.00 0.00 0.00 0.00 0.00 0.00 0.00 0.00 0.00 0.00
MSLP
987.60 987.67 987.73 987.75 986.97 986.13 986.17 986.81 988.27 989.75 991.46 992.92 993.67 994.52 995.73 996.41 997.98 999.15 1001.81 1002.02 1002.21 1005.47 1007.19 1007.18 1007.49 1008.07 1009.23 1009.95 1010.72 1012.25 1012.82 1013.46 1013.96 1013.78 1014.25 1014.55 1014.56 1014.26 1014.05 1013.82 1013.70 1013.64 1013.83 1014.02 1014.11 1013.52 1012.39 1011.88 1011.72 1011.86 1011.62 1011.40 1011.39 1011.25
986.84 987.30 987.33 986.91 984.57 979.93 979.21 981.58 984.98 987.62 989.85 991.03 992.51 993.58 994.94 996.17 997.50 998.67 1001.57 1002.19 1002.45 1005.08 1007.52 1007.68 1008.09 1008.06 1008.42 1009.32 1010.57 1011.64 1011.93 1012.48 1012.82 1013.32 1014.35 1014.82 1014.99 1014.83 1014.43 1014.01 1013.77 1013.86 1013.33 1013.67 1013.93 1012.39 1011.91 1011.92 1011.94 1011.62 1011.47 1011.15 1011.18 1010.94
986.31 986.84 986.98 986.03 982.38 976.02 976.35 980.19 983.59 986.41 988.64 990.61 992.32 993.48 995.02 996.67 997.80 998.61 1000.87 1002.62 1003.07 1006.07 1008.34 1008.70 1009.30 1008.84 1008.44 1009.35 1009.64 1010.90 1012.10 1012.38 1012.53 1012.89 1014.22 1014.98 1014.80 1014.66 1014.37 1013.89 1013.42 1013.44 1013.50 1013.38 1013.34 1011.64 1011.70 1011.13 1011.15 1010.82 1010.81 1010.74 1010.76 1010.52
986.87 987.23 986.36 986.50 984.78 980.54 978.96 981.11 983.61 986.14 988.69 990.82 992.72 994.49 995.66 997.05 998.97 999.61 1001.15 1002.49 1002.74 1005.05 1007.86 1009.91 1009.16 1009.75 1009.58 1009.70 1009.78 1010.20 1011.24 1012.14 1012.70 1013.48 1014.47 1014.73 1014.63 1014.38 1014.09 1013.48 1013.14 1013.13 1013.12 1012.41 1011.84 1011.32 1011.10 1010.59 1010.51 1010.32 1010.19 1010.20 1010.00 1009.78
988.68 988.58 988.21 987.82 987.33 986.19 984.84 985.64 986.70 988.28 990.54 992.69 994.39 996.38 996.70 998.21 999.79 1000.75 1001.90 1003.08 1003.20 1004.34 1007.80 1009.81 1009.78 1010.39 1010.32 1010.22 1010.52 1010.98 1011.63 1012.45 1013.23 1014.22 1014.61 1014.66 1014.42 1014.47 1013.98 1013.57 1012.45 1012.55 1011.54 1011.89 1010.96 1010.69 1010.77 1010.07 1010.21 1010.10 1009.65 1009.35 1009.14 1008.90
990.36 990.20 990.03 989.75 989.61 989.63 989.79 990.46 991.19 992.19 993.72 995.14 996.61 997.79 998.44 999.34 1000.17 1000.45 1002.63 1003.66 1003.81 1004.12 1006.46 1009.66 1010.90 1010.90 1010.82 1010.98 1011.37 1011.85 1012.33 1012.95 1013.65 1013.97 1014.38 1014.23 1014.07 1014.10 1013.67 1012.71 1011.35 1010.92 1010.89 1010.76 1010.21 1010.17 1010.23 1009.72 1009.57 1009.21 1008.96 1008.62 1008.46 1008.30
992.45 992.27 992.14 992.01 991.98 992.13 992.44 993.01 993.79 994.78 995.85 996.86 997.68 998.28 998.87 999.69 1000.53 1001.95 1003.39 1003.94 1004.03 1004.15 1006.36 1009.64 1011.04 1011.52 1011.47 1011.66 1012.18 1012.74 1013.14 1013.50 1013.67 1013.92 1014.00 1013.84 1013.82 1013.83 1013.12 1011.57 1010.24 1010.48 1010.58 1010.24 1010.16 1010.06 1009.59 1009.10 1008.70 1008.51 1008.46 1008.23 1008.05 1007.81
994.47 994.47 994.43 994.35 994.38 994.53 994.83 995.17 995.63 996.20 996.81 997.39 997.97 998.72 999.57 1000.38 1001.30 1002.57 1003.99 1003.80 1003.75 1005.04 1006.75 1009.57 1011.48 1012.09 1012.05 1012.03 1012.81 1013.40 1013.59 1013.77 1013.86 1013.70 1013.78 1013.42 1013.53 1013.14 1012.07 1010.01 1010.21 1010.35 1009.95 1009.57 1009.36 1009.37 1009.05 1008.79 1008.55 1008.33 1008.18 1008.12 1007.91 1007.77
996.49 996.42 996.36 996.37 996.48 996.67 996.96 997.26 997.55 997.80 998.20 998.74 999.25 999.75 1000.59 1002.28 1003.94 1005.12 1004.87 1004.77 1005.02 1006.46 1008.66 1010.29 1011.41 1012.15 1011.89 1012.43 1012.85 1013.39 1013.54 1013.98 1014.19 1013.71 1013.38 1013.36 1012.73 1012.00 1010.45 1010.60 1010.45 1010.34 1009.93 1009.64 1009.82 1009.68 1009.34 1009.00 1008.88 1008.80 1008.68 1008.62 1008.51 1008.21
998.38 998.32 998.30 998.30 998.28 998.38 998.52 998.61 998.74 998.92 999.17 999.48 1000.12 1001.96 1004.51 1005.64 1005.36 1005.16 1005.38 1005.84 1007.31 1008.78 1009.71 1011.15 1011.66 1011.89 1012.33 1012.59 1013.32 1013.98 1014.43 1014.42 1014.19 1013.60 1013.28 1012.84 1011.34 1010.55 1010.44 1010.66 1010.82 1010.83 1010.53 1010.28 1010.12 1010.08 1009.99 1009.72 1009.65 1009.51 1009.41 1009.34 1009.10 1008.73
999.93 1000.04 1000.19 1000.19 1000.18 1000.18 1000.21 1000.27 1000.28 1000.15 1000.28 1001.64 1003.57 1005.23 1006.15 1006.00 1006.18 1007.05 1008.52 1009.17 1010.12 1011.06 1011.71 1012.43 1012.40 1012.43 1012.92 1013.28 1013.70 1014.15 1014.17 1014.31 1014.16 1013.44 1013.18 1012.34 1011.16 1010.80 1010.81 1010.87 1011.26 1011.17 1010.99 1010.80 1010.80 1010.82 1010.77 1010.66 1010.43 1010.20 1009.91 1009.72 1009.47 1009.20
1001.60 1001.60 1001.59 1001.54 1001.54 1001.55 1001.55 1001.49 1001.28 1001.77 1003.33 1003.78 1004.51 1006.17 1006.63 1007.36 1008.03 1009.02 1010.86 1011.11 1011.19 1012.15 1012.51 1012.45 1012.61 1012.73 1013.12 1013.37 1013.52 1014.31 1014.35 1014.56 1013.85 1013.44 1012.94 1011.92 1011.36 1011.22 1011.24 1011.25 1011.40 1011.15 1011.06 1010.79 1010.54 1010.56 1010.60 1010.67 1010.59 1010.49 1010.29 1010.11 1009.93 1009.64
1002.91 1002.99 1003.09 1003.25 1003.28 1003.27 1003.34 1003.38 1003.43 1003.61 1003.72 1004.18 1005.30 1007.49 1008.62 1009.80 1010.30 1010.86 1011.74 1011.71 1011.83 1011.97 1012.40 1012.59 1012.95 1012.97 1013.30 1013.41 1013.59 1013.91 1013.93 1013.82 1013.52 1013.21 1012.46 1011.87 1012.01 1011.98 1011.96 1011.90 1011.71 1011.51 1011.32 1011.05 1010.71 1010.43 1010.43 1010.41 1010.42 1010.38 1010.28 1010.23 1010.06 1009.68
1004.25 1004.28 1004.30 1004.31 1004.27 1004.18 1004.12 1004.00 1004.03 1004.02 1004.72 1006.46 1007.91 1009.82 1010.49 1011.34 1011.63 1011.67 1011.51 1011.41 1011.68 1011.78 1012.28 1012.41 1012.63 1012.75 1012.95 1013.24 1013.41 1013.42 1013.07 1013.01 1013.02 1012.82 1012.03 1012.11 1012.24 1012.28 1012.22 1012.04 1011.78 1011.58 1011.33 1011.13 1010.92 1010.65 1010.42 1010.35 1010.28 1010.26 1010.26 1010.13 1010.05 1009.73
1005.23 1005.23 1005.27 1005.29 1005.17 1005.05 1004.92 1004.85 1004.69 1004.89 1006.34 1007.94 1008.91 1011.10 1011.83 1012.17 1012.16 1012.16 1011.81 1011.52 1011.72 1011.73 1011.83 1012.23 1012.54 1012.59 1012.80 1013.00 1013.12 1013.06 1012.74 1012.28 1012.01 1011.54 1011.85 1012.30 1012.41 1012.30 1012.19 1012.10 1011.82 1011.60 1011.40 1011.31 1011.19 1010.77 1010.44 1010.24 1010.17 1010.06 1009.99 1009.98 1009.95 1009.86
1006.28 1006.18 1006.54 1006.30 1006.00 1005.73 1005.62 1005.59 1005.76 1006.48 1007.92 1008.92 1010.24 1011.56 1012.21 1012.45 1012.70 1012.44 1012.13 1011.73 1011.55 1011.67 1011.78 1011.81 1012.21 1012.52 1012.59 1012.69 1012.75 1012.22 1011.72 1011.24 1011.38 1011.71 1012.18 1012.51 1012.61 1012.55 1012.45 1012.24 1011.87 1011.67 1011.47 1011.34 1010.95 1010.56 1010.25 1009.96 1009.79 1009.77 1009.82 1009.84 1009.84 1009.85
1006.90 1007.34 1007.23 1007.10 1006.90 1006.70 1006.48 1006.70 1007.03 1008.08 1009.04 1010.02 1011.29 1011.52 1011.94 1012.23 1012.24 1012.18 1011.87 1011.54 1011.41 1011.59 1011.67 1011.69 1012.00 1012.02 1012.17 1012.11 1011.86 1011.40 1011.21 1011.34 1011.79 1012.23 1012.51 1012.72 1012.82 1012.79 1012.61 1012.36 1012.06 1011.83 1011.49 1011.02 1010.60 1010.28 1010.01 1009.69 1009.64 1009.69 1009.64 1009.61 1009.71 1009.77
1007.98 1007.99 1007.72 1007.55 1007.35 1007.26 1007.62 1008.03 1008.82 1009.46 1010.13 1010.84 1011.22 1011.69 1011.71 1011.73 1011.82 1011.71 1011.60 1011.45 1011.46 1011.51 1011.59 1011.66 1011.80 1011.86 1011.54 1011.32 1011.18 1011.29 1011.52 1011.85 1012.14 1012.47 1012.75 1012.91 1013.00 1013.05 1012.91 1012.75 1012.47 1012.20 1011.70 1011.23 1010.72 1010.22 1009.84 1009.62 1009.45 1009.22 1009.28 1009.40 1009.66 1009.87
1008.34 1008.35 1008.19 1008.00 1007.98 1008.50 1009.22 1009.68 1009.85 1010.27 1010.66 1010.86 1011.12 1011.40 1011.40 1011.29 1011.09 1010.99 1011.00 1011.08 1011.17 1011.23 1011.43 1011.68 1011.87 1011.58 1011.22 1010.95 1011.16 1011.51 1011.92 1012.21 1012.56 1012.83 1013.00 1013.08 1013.24 1013.33 1013.21 1012.95 1012.65 1012.28 1011.89 1011.38 1010.71 1010.03 1009.58 1009.30 1009.12 1008.95 1008.86 1009.07 1009.31 1009.77
1008.58 1008.70 1008.68 1008.61 1008.49 1009.42 1010.04 1010.39 1010.35 1010.45 1010.55 1010.83 1010.85 1010.95 1010.85 1010.76 1010.71 1010.80 1010.89 1011.02 1011.10 1011.24 1011.44 1011.55 1011.33 1011.06 1011.16 1011.32 1011.53 1011.87 1012.17 1012.52 1012.79 1012.92 1012.93 1013.20 1013.41 1013.44 1013.30 1013.06 1012.75 1012.42 1011.90 1011.32 1010.70 1010.06 1009.30 1008.89 1008.66 1008.53 1008.47 1008.63 1008.98 1009.54
1008.98 1009.23 1009.18 1009.21 1009.62 1010.04 1010.37 1010.43 1010.39 1010.49 1010.58 1010.61 1010.53 1010.58 1010.51 1010.42 1010.50 1010.60 1010.61 1010.70 1010.87 1010.62 1010.81 1010.87 1011.14 1011.37 1011.60 1011.81 1012.02 1012.34 1012.64 1012.84 1013.11 1013.36 1013.37 1013.36 1013.48 1013.55 1013.27 1013.06 1012.86 1012.47 1012.02 1011.46 1010.86 1010.04 1009.46 1008.90 1008.48 1008.45 1008.36 1008.61 1008.99 1009.71
1009.53 1009.52 1009.75 1009.93 1010.30 1010.45 1010.69 1010.71 1010.81 1010.79 1010.84 1010.57 1010.55 1010.52 1010.47 1010.44 1010.23 1010.12 1010.07 1010.41 1010.29 1010.25 1010.74 1011.07 1011.35 1011.60 1011.99 1012.43 1012.68 1012.93 1013.27 1013.45 1013.68 1013.88 1013.99 1014.02 1013.85 1013.75 1013.54 1013.35 1013.04 1012.54 1011.98 1011.48 1010.94 1010.29 1009.47 1008.74 1008.68 1008.89 1009.17 1009.67 1010.12 1010.75
1009.59 1009.82 1010.06 1010.30 1010.71 1010.90 1011.23 1011.06 1011.03 1010.81 1010.74 1010.50 1010.45 1010.42 1010.29 1010.16 1009.97 1009.96 1010.09 1009.98 1010.18 1010.67 1011.08 1011.33 1011.60 1011.89 1012.29 1012.82 1013.12 1013.49 1013.75 1013.91 1014.04 1014.15 1014.18 1014.20 1014.17 1014.08 1013.91 1013.60 1013.27 1012.83 1012.05 1011.29 1010.99 1010.31 1009.47 1009.12 1009.34 1009.52 1009.90 1010.37 1010.99 1011.79
1009.90 1010.20 1010.37 1010.55 1010.90 1011.39 1011.43 1011.22 1011.09 1010.82 1010.60 1010.58 1010.62 1010.48 1010.16 1010.28 1010.20 1010.20 1010.17 1010.17 1010.62 1011.17 1011.52 1011.75 1011.98 1012.42 1012.83 1013.13 1013.50 1013.81 1014.06 1014.19 1014.31 1014.31 1014.34 1014.31 1014.17 1014.03 1014.01 1013.73 1013.35 1012.99 1012.46 1011.86 1011.13 1010.20 1009.67 1009.82 1010.06 1010.28 1010.65 1011.06 1011.74 1012.43
1010.49 1010.76 1010.90 1010.88 1011.09 1011.53 1011.63 1011.54 1011.31 1011.12 1011.13 1010.99 1011.08 1010.96 1010.78 1010.76 1010.87 1010.80 1010.48 1010.80 1011.32 1011.78 1012.12 1012.25 1012.42 1012.64 1012.98 1013.46 1013.84 1014.12 1014.31 1014.38 1014.43 1014.45 1014.36 1014.39 1014.35 1014.22 1014.01 1013.82 1013.46 1012.96 1012.70 1012.08 1011.33 1010.61 1010.26 1010.45 1010.67 1011.00 1011.40 1011.86 1012.45 1013.23
1010.65 1010.72 1010.66 1010.66 1010.98 1011.31 1011.37 1011.85 1011.90 1011.69 1011.60 1011.70 1011.47 1011.38 1011.42 1011.47 1011.59 1011.11 1010.90 1011.13 1011.60 1011.97 1012.32 1012.49 1012.66 1013.04 1013.36 1013.67 1014.03 1014.33 1014.55 1014.66 1014.70 1014.65 1014.57 1014.56 1014.52 1014.56 1014.45 1014.26 1013.87 1013.30 1013.00 1012.54 1011.74 1011.01 1010.90 1011.07 1011.31 1011.69 1012.19 1012.73 1013.30 1013.82
1010.22 1010.05 1009.97 1010.06 1010.34 1010.75 1011.46 1011.61 1011.70 1011.85 1012.05 1011.76 1011.59 1011.89 1012.08 1012.21 1011.77 1010.95 1010.90 1011.17 1011.31 1011.46 1011.63 1012.17 1012.53 1012.91 1013.32 1013.87 1014.33 1014.66 1014.88 1014.98 1015.03 1014.92 1014.74 1014.68 1014.77 1014.88 1014.94 1014.90 1014.55 1014.20 1013.57 1012.88 1012.20 1011.74 1011.61 1011.78 1012.03 1012.40 1012.90 1013.48 1013.98 1014.46
1009.06 1009.30 1009.95 1010.37 1010.68 1010.91 1011.53 1011.77 1011.87 1011.82 1011.27 1011.14 1011.59 1012.02 1011.74 1011.50 1011.08 1010.73 1010.85 1011.01 1011.23 1011.55 1011.98 1012.53 1012.90 1013.23 1013.72 1014.30 1014.76 1014.96 1015.13 1015.17 1015.13 1014.91 1014.89 1015.02 1015.15 1015.22 1015.21 1015.13 1014.95 1014.50 1013.95 1013.33 1012.88 1012.55 1012.44 1012.52 1012.77 1013.12 1013.57 1014.04 1014.61 1015.14
1008.99 1009.23 1009.94 1011.24 1011.31 1011.35 1011.32 1011.28 1011.17 1010.61 1010.17 1010.53 1010.92 1010.83 1010.71 1010.62 1010.53 1010.68 1010.98 1011.13 1011.44 1011.70 1012.45 1013.14 1013.85 1014.16 1014.61 1014.98 1015.23 1015.43 1015.56 1015.58 1015.54 1015.55 1015.55 1015.57 1015.62 1015.57 1015.61 1015.49 1015.23 1014.85 1014.40 1013.87 1013.44 1013.33 1013.31 1013.35 1013.57 1013.96 1014.40 1014.84 1015.33 1015.79
1009.08 1009.21 1010.15 1011.01 1011.41 1011.17 1010.44 1010.34 1010.71 1010.47 1010.30 1010.22 1010.19 1010.38 1010.44 1010.26 1010.18 1010.55 1010.81 1011.12 1011.51 1011.84 1012.27 1012.79 1013.45 1014.09 1014.70 1015.12 1015.49 1015.81 1016.03 1016.16 1016.05 1016.08 1016.01 1016.05 1015.99 1016.09 1016.06 1015.85 1015.54 1015.32 1015.02 1014.73 1014.59 1014.55 1014.52 1014.59 1014.73 1015.02 1015.35 1015.79 1016.21 1016.74
1008.72 1009.43 1010.34 1010.72 1011.08 1010.76 1011.00 1011.12 1011.38 1011.27 1011.05 1010.96 1010.92 1010.91 1010.86 1010.73 1010.33 1010.41 1010.76 1010.97 1011.37 1012.14 1012.69 1013.35 1013.86 1014.40 1014.62 1015.07 1015.39 1015.81 1015.97 1016.23 1016.44 1016.39 1016.40 1016.39 1016.29 1016.21 1016.16 1016.03 1015.80 1015.57 1015.40 1015.22 1015.11 1015.13 1015.22 1015.33 1015.51 1015.79 1016.13 1016.53 1017.06 1017.49
1009.29 1009.93 1010.68 1011.30 1011.30 1011.29 1011.46 1011.79 1011.92 1011.92 1011.84 1011.80 1011.65 1011.79 1011.61 1011.52 1011.14 1010.60 1010.81 1011.19 1011.73 1012.23 1012.35 1012.72 1013.24 1013.76 1014.23 1014.51 1014.84 1015.16 1015.33 1015.53 1016.06 1016.27 1016.39 1016.41 1016.33 1016.28 1016.18 1016.02 1015.82 1015.65 1015.53 1015.48 1015.50 1015.60 1015.77 1015.93 1016.14 1016.44 1016.85 1017.32 1017.85 1018.39
1010.18 1010.45 1010.99 1011.16 1011.62 1011.84 1012.11 1012.32 1012.65 1012.75 1012.66 1012.38 1012.26 1012.12 1012.03 1011.91 1011.42 1010.68 1011.14 1011.32 1011.45 1011.56 1011.89 1012.40 1012.83 1013.31 1013.76 1014.35 1014.63 1015.05 1015.41 1015.67 1015.90 1016.14 1016.25 1016.32 1016.27 1016.21 1016.04 1015.90 1015.78 1015.64 1015.55 1015.54 1015.76 1015.98 1016.24 1016.50 1016.80 1017.14 1017.58 1018.09 1018.66 1019.24
Thickness
5388 5390 5392 5393 5400 5406 5410 5419 5432 5444 5454 5467 5483 5494 5497 5504 5500 5503 5483 5495 5504 5475 5464 5475 5478 5470 5459 5457 5455 5437 5435 5427 5423 5430 5430 5429 5431 5435 5428 5436 5440 5439 5428 5420 5420 5414 5419 5426 5425 5417 5415 5413 5409 5410
5385 5387 5388 5390 5409 5449 5456 5442 5431 5433 5444 5460 5470 5482 5484 5491 5491 5491 5475 5480 5489 5473 5454 5455 5451 5454 5451 5446 5435 5424 5434 5427 5424 5417 5412 5405 5408 5400 5405 5419 5419 5414 5424 5415 5403 5429 5408 5403 5402 5399 5398 5400 5396 5400
5393 5390 5390 5395 5426 5481 5478 5450 5435 5436 5444 5450 5456 5469 5473 5468 5471 5478 5471 5464 5470 5451 5434 5432 5427 5432 5437 5434 5434 5423 5410 5414 5413 5411 5401 5395 5399 5398 5400 5404 5408 5405 5395 5397 5385 5419 5395 5397 5390 5388 5388 5389 5391 5396
5397 5394 5402 5401 5416 5451 5462 5453 5449 5449 5446 5447 5449 5452 5456 5456 5449 5456 5456 5452 5459 5447 5429 5406 5415 5412 5417 5419 5420 5419 5410 5402 5398 5394 5386 5384 5391 5391 5395 5402 5399 5397 5385 5387 5387 5394 5384 5390 5385 5385 5384 5385 5388 5390
5388 5389 5399 5406 5411 5420 5429 5432 5438 5440 5436 5432 5432 5427 5439 5439 5435 5437 5436 5435 5441 5441 5410 5398 5400 5397 5401 5404 5403 5401 5397 5392 5387 5380 5377 5380 5379 5375 5378 5378 5389 5379 5382 5365 5371 5378 5372 5383 5375 5372 5374 5377 5379 5383
5388 5390 5396 5403 5407 5410 5412 5410 5411 5414 5414 5414 5414 5415 5422 5425 5427 5431 5420 5422 5425 5427 5411 5391 5380 5384 5387 5388 5386 5383 5382 5378 5375 5374 5369 5366 5366 5365 5364 5370 5387 5374 5369 5365 5372 5374 5369 5372 5372 5371 5370 5372 5374 5377
5384 5388 5392 5397 5401 5404 5406 5408 5407 5407 5406 5406 5407 5409 5413 5416 5417 5412 5408 5411 5416 5419 5402 5384 5378 5371 5373 5374 5370 5369 5366 5363 5366 5360 5358 5361 5355 5353 5354 5369 5375 5369 5364 5364 5364 5364 5367 5371 5371 5372 5368 5368 5369 5371
5379 5381 5384 5389 5392 5396 5398 5401 5404 5405 5407 5409 5411 5412 5412 5411 5410 5405 5399 5406 5411 5404 5397 5379 5366 5366 5361 5365 5361 5350 5351 5348 5347 5350 5345 5348 5343 5343 5348 5372 5367 5362 5362 5365 5366 5366 5366 5367 5368 5368 5366 5364 5365 5366
5370 5373 5377 5381 5384 5386 5388 5391 5393 5397 5400 5400 5401 5403 5402 5393 5385 5381 5388 5393 5394 5388 5368 5363 5365 5354 5353 5348 5348 5343 5340 5334 5329 5334 5334 5329 5332 5333 5353 5353 5355 5353 5355 5358 5352 5352 5353 5354 5356 5355 5354 5354 5354 5357
5361 5365 5368 5372 5376 5378 5381 5385 5388 5391 5394 5396 5395 5384 5368 5368 5374 5380 5380 5377 5369 5361 5359 5348 5343 5351 5345 5337 5331 5326 5313 5315 5315 5320 5315 5316 5337 5348 5347 5345 5341 5338 5340 5342 5342 5343 5340 5342 5342 5343 5343 5343 5345 5349
5352 5354 5356 5359 5363 5368 5372 5375 5379 5384 5387 5378 5367 5363 5358 5362 5364 5356 5343 5345 5342 5340 5334 5326 5328 5332 5321 5323 5318 5305 5303 5303 5302 5311 5306 5312 5333 5332 5334 5333 5329 5328 5331 5334 5333 5332 5331 5330 5331 5332 5334 5336 5338 5340
5340 5343 5346 5350 5353 5356 5359 5364 5369 5368 5358 5359 5358 5348 5348 5342 5339 5334 5321 5330 5331 5325 5317 5319 5318 5314 5310 5307 5309 5295 5300 5292 5298 5304 5308 5320 5322 5323 5323 5325 5324 5326 5327 5332 5333 5333 5330 5327 5328 5327 5328 5328 5329 5330
5329 5331 5333 5334 5337 5340 5343 5345 5348 5350 5353 5352 5344 5326 5325 5315 5314 5321 5297 5314 5312 5310 5305 5310 5307 5305 5303 5304 5304 5300 5298 5298 5301 5300 5312 5320 5311 5311 5311 5314 5317 5317 5320 5321 5325 5329 5327 5327 5325 5324 5324 5324 5323 5325
5316 5319 5322 5325 5328 5332 5335 5340 5344 5346 5342 5325 5318 5302 5298 5290 5304 5310 5315 5314 5309 5311 5304 5306 5306 5307 5301 5303 5301 5304 5312 5308 5301 5295 5310 5310 5305 5304 5306 5310 5314 5314 5316 5316 5317 5320 5322 5322 5321 5320 5319 5318 5318 5321
5305 5309 5313 5316 5320 5324 5328 5330 5334 5334 5324 5314 5311 5286 5294 5289 5290 5288 5293 5305 5304 5304 5306 5305 5304 5308 5306 5305 5304 5304 5307 5312 5311 5324 5315 5302 5299 5301 5303 5305 5307 5307 5307 5308 5309 5311 5314 5316 5315 5315 5315 5313 5312 5309
5296 5300 5300 5306 5312 5317 5320 5323 5323 5319 5308 5310 5300 5289 5284 5286 5282 5283 5292 5302 5304 5305 5310 5313 5306 5304 5305 5304 5304 5307 5324 5326 5319 5312 5303 5297 5295 5295 5295 5296 5300 5300 5300 5300 5304 5306 5307 5309 5309 5309 5306 5305 5302 5301
5295 5292 5294 5298 5303 5308 5312 5313 5313 5306 5304 5304 5283 5280 5282 5284 5293 5291 5294 5307 5307 5312 5307 5316 5307 5309 5310 5310 5316 5323 5320 5312 5302 5294 5291 5289 5287 5286 5287 5288 5289 5289 5290 5293 5295 5297 5297 5298 5296 5296 5297 5297 5294 5293
5296 5297 5299 5300 5304 5306 5306 5304 5300 5300 5301 5291 5289 5286 5286 5290 5294 5296 5299 5302 5309 5310 5308 5307 5308 5307 5311 5310 5311 5300 5294 5290 5287 5283 5279 5277 5276 5272 5272 5271 5271 5270 5274 5276 5279 5282 5284 5283 5283 5286 5285 5283 5280 5279
5304 5304 5304 5306 5307 5303 5298 5297 5298 5293 5293 5293 5292 5291 5295 5299 5300 5303 5304 5302 5303 5301 5300 5301 5298 5304 5307 5308 5297 5286 5280 5276 5271 5266 5262 5260 5257 5252 5250 5251 5251 5253 5254 5255 5261 5267 5270 5269 5270 5271 5272 5270 5268 5264
5307 5306 5305 5306 5307 5300 5298 5297 5299 5301 5301 5297 5298 5299 5302 5304 5303 5299 5298 5297 5300 5303 5298 5297 5300 5298 5293 5284 5280 5275 5269 5264 5260 5258 5256 5246 5241 5238 5237 5237 5237 5236 5238 5239 5242 5245 5253 5255 5255 5256 5256 5255 5253 5248
5307 5305 5304 5304 5300 5298 5298 5300 5302 5301 5298 5298 5300 5302 5301 5301 5302 5299 5298 5297 5299 5307 5299 5291 5281 5276 5273 5271 5268 5263 5258 5253 5249 5245 5243 5239 5231 5226 5226 5223 5221 5221 5222 5223 5226 5231 5234 5238 5242 5241 5243 5241 5236 5229
5305 5304 5302 5301 5297 5298 5297 5297 5295 5294 5295 5301 5300 5299 5297 5294 5295 5297 5301 5300 5305 5298 5285 5276 5274 5273 5270 5261 5254 5250 5243 5239 5233 5226 5220 5218 5216 5212 5209 5206 5204 5205 5207 5207 5210 5214 5219 5225 5223 5219 5216 5212 5208 5203
5307 5305 5303 5302 5294 5294 5290 5290 5294 5295 5292 5297 5299 5301 5298 5296 5296 5297 5298 5302 5294 5278 5275 5273 5269 5265 5258 5248 5245 5238 5230 5226 5220 5214 5209 5203 5197 5192 5190 5188 5187 5187 5191 5194 5192 5196 5203 5203 5198 5196 5193 5190 5185 5179
5305 5303 5302 5301 5299 5280 5291 5292 5297 5301 5304 5302 5301 5296 5303 5291 5300 5301 5303 5303 5281 5272 5270 5264 5263 5257 5251 5244 5236 5229 5222 5214 5207 5202 5196 5190 5186 5181 5175 5172 5170 5168 5171 5172 5175 5182 5185 5180 5176 5173 5170 5168 5164 5160
5295 5296 5298 5283 5293 5290 5282 5275 5282 5299 5284 5283 5291 5282 5284 5288 5282 5282 5292 5280 5268 5264 5258 5257 5254 5250 5243 5232 5223 5219 5211 5205 5199 5192 5185 5177 5171 5165 5160 5155 5154 5156 5153 5154 5158 5163 5164 5159 5155 5151 5149 5148 5145 5140
5294 5286 5290 5290 5274 5289 5289 5269 5266 5275 5276 5271 5278 5279 5275 5274 5266 5280 5282 5270 5259 5257 5247 5247 5245 5239 5232 5226 5219 5211 5203 5194 5187 5181 5173 5164 5156 5149 5143 5138 5135 5138 5138 5138 5141 5146 5143 5137 5134 5131 5130 5128 5126 5126
5288 5288 5303 5302 5300 5298 5276 5275 5289 5274 5258 5265 5270 5258 5261 5261 5264 5275 5268 5261 5263 5257 5253 5246 5241 5236 5228 5219 5208 5199 5191 5182 5174 5168 5159 5151 5142 5134 5127 5123 5122 5122 5122 5123 5124 5124 5121 5117 5116 5115 5114 5114 5114 5114
5304 5301 5292 5293 5284 5290 5265 5262 5264 5266 5275 5282 5269 5257 5267 5266 5276 5273 5267 5261 5256 5251 5245 5237 5231 5225 5217 5206 5196 5189 5181 5171 5164 5157 5149 5139 5129 5121 5116 5113 5110 5109 5109 5109 5107 5105 5103 5102 5102 5103 5103 5104 5103 5104
5295 5297 5290 5263 5265 5273 5278 5282 5280 5285 5284 5280 5271 5270 5269 5269 5265 5264 5258 5253 5249 5246 5237 5227 5214 5206 5198 5189 5181 5174 5168 5164 5158 5142 5133 5127 5117 5114 5106 5103 5101 5100 5098 5097 5096 5092 5091 5091 5092 5093 5092 5093 5093 5094
5286 5293 5276 5258 5273 5280 5285 5285 5277 5269 5273 5274 5274 5271 5269 5265 5261 5252 5251 5248 5245 5241 5234 5224 5212 5205 5197 5189 5181 5170 5157 5149 5144 5137 5128 5119 5111 5102 5097 5095 5094 5091 5089 5087 5083 5081 5080 5080 5081 5082 5082 5083 5083 5083
5290 5279 5270 5272 5270 5273 5261 5248 5250 5254 5254 5257 5247 5263 5267 5255 5255 5249 5246 5243 5236 5225 5220 5211 5200 5193 5188 5177 5174 5164 5159 5144 5131 5124 5115 5106 5100 5096 5092 5090 5088 5086 5084 5082 5079 5077 5076 5076 5076 5076 5076 5076 5075 5076
5267 5274 5268 5263 5269 5255 5254 5255 5244 5246 5245 5247 5253 5231 5242 5248 5254 5251 5239 5234 5228 5223 5218 5213 5205 5197 5183 5176 5168 5160 5151 5143 5129 5119 5109 5102 5096 5091 5089 5086 5085 5084 5082 5079 5076 5074 5072 5072 5072 5072 5071 5070 5069 5068
5255 5252 5246 5252 5252 5256 5251 5246 5239 5237 5232 5233 5237 5234 5234 5240 5248 5247 5230 5227 5228 5227 5217 5209 5201 5190 5182 5172 5165 5155 5143 5134 5123 5115 5105 5098 5091 5088 5086 5084 5083 5082 5081 5079 5075 5072 5070 5068 5067 5066 5064 5063 5062 5060